Regional Weather Roundup
Issued by NWS

Home | Current Version | Previous Version | Text Only | Print | Product List | Glossary Off
Versions: 1 2 3 4 5 6 7 8 9 10 11 12 13 14 15 16 17 18 19 20 21 22 23 24 25 26 27 28 29 30 31 32 33 34 35 36 37 38 39 40 41 42 43 44 45 46 47 48 49 50

000
ASUS45 KABQ 280601
RWRNM
NEW MEXICO REGIONAL WEATHER ROUNDUP
NATIONAL WEATHER SERVICE ALBUQUERQUE NM
1200 AM MDT THU MAY 28 2015

NOTE: "FAIR" MEANS FEW OR NO CLOUDS BELOW 12,000 FEET AGL WITH NO
       SIGNIFICANT WEATHER OR OBSTRUCTIONS TO VISION.

      THIS PRODUCT IS RELEASED AS TWO VERSIONS.  ONE VERSION NEAR
      THE TOP OF THE HOUR CONTAINING PRELIMINARY DATA FROM ALBUQUERQUE
      AND OTHER STATIONS.  A FINAL VERSION WITH ADDITIONAL DATA IS
      ISSUED ABOUT 10 MINUTES AFTER THE HOUR.

NMZ501-503-504-510>518-280700-
NORTHWEST PLATEAU/NORTHCENTRAL MOUNTAINS

CITY           SKY/WX    TMP DP  RH WIND       PRES   REMARKS
FARMINGTON     CLEAR     59  35  40 E3        30.08R
6HR MIN TEMP:  59; 6HR MAX TEMP:  76;

SANTA FE       PTCLDY    53  34  48 CALM      30.13R
6HR MIN TEMP:  53; 6HR MAX TEMP:  72;

TAOS           MOCLDY    52  30  43 E5        30.20R
ANGEL FIRE     FAIR      41  34  76 CALM      30.29S

$$
NMZ402-403-502-505>509-280700-
WESTCENTRAL MOUNTAINS/SOUTHWEST MOUNTAINS

CITY           SKY/WX    TMP DP  RH WIND       PRES   REMARKS
GALLUP         MOCLDY    50  31  48 CALM      30.18R
6HR MIN TEMP:  49; 6HR MAX TEMP:  70;

GRANTS         PTCLDY    54  26  33 N3        30.19R
SILVER CITY      N/A     55  14  19 NW9       30.11S

$$
NMZ407-409-411-412-280700-
SOUTHERN DESERTS

CITY           SKY/WX    TMP DP  RH WIND       PRES   REMARKS
LORDSBURG      FAIR      66  14  13 NW5       30.04R
DEMING         CLEAR     63  13  14 SW5       30.03R
6HR MIN TEMP:  61; 6HR MAX TEMP:  89;

HOLLOMAN AFB   MOCLDY    69  27  21 E6        29.98R
ALAMOGORDO     CLOUDY    68  25  19 SE3       30.00S
T OR C         PTCLDY    64  14  14 SW5       30.03S
6HR MIN TEMP:  63; 6HR MAX TEMP:  87;


$$
NMZ519>523-280700-
CENTRAL VALLEYS/CENTRAL HIGHLANDS

CITY           SKY/WX    TMP DP  RH WIND       PRES   REMARKS
ALBUQUERQUE    PTCLDY    65  31  28 SE9       30.06R
6HR MIN TEMP:  63; 6HR MAX TEMP:  78;

DOUBLE EAGLE   PTCLDY    52  39  59 NW10      30.09S
MORIARTY ARPT  FAIR      48  40  75 CALM      30.14F
6HR MIN TEMP:  47; 6HR MAX TEMP:  73;

CLINES CORNERS PTCLDY    58  25  28 SE6       30.18S
6HR MIN TEMP:  55; 6HR MAX TEMP:  70;

BELEN          FAIR      64  20  18 W10       30.06R
6HR MIN TEMP:  63; 6HR MAX TEMP:  82;

SOCORRO        NOT AVBL

$$
NMZ524>526-539-540-280700-
SOUTHCENTRAL MOUNTAINS

CITY           SKY/WX    TMP DP  RH WIND       PRES   REMARKS
RUIDOSO        NOT AVBL

$$
NMZ527>531-280700-
NORTHEAST HIGHLANDS/NORTHEAST PLAINS

CITY           SKY/WX    TMP DP  RH WIND       PRES   REMARKS
LAS VEGAS      PTCLDY    57  26  30 CALM      30.18S
6HR MIN TEMP:  54; 6HR MAX TEMP:  72;

RATON          PTCLDY    52  43  71 NE7       30.14S
6HR MIN TEMP:  50; 6HR MAX TEMP:  69; 6HR PCP: TRACE;

CLAYTON        CLEAR     56  53  90 E10       30.10R
6HR MIN TEMP:  55; 6HR MAX TEMP:  74;


$$
NMZ532>537-280700-
EASTCENTRAL PLAINS

CITY           SKY/WX    TMP DP  RH WIND       PRES   REMARKS
TUCUMCARI      PTCLDY    64  51  62 CALM      30.02R
6HR MIN TEMP:  63; 6HR MAX TEMP:  84;

CANNON AFB     PTCLDY    66  55  69 SE9       30.07R
6HR MIN TEMP:  63; 6HR MAX TEMP:  81;

CLOVIS AIRPORT MOCLDY    64  54  68 SE15        N/A

$$
NMZ028-029-538-280700-
SOUTHEAST PLAINS

CITY           SKY/WX    TMP DP  RH WIND       PRES   REMARKS
ROSWELL        CLEAR     67  55  65 S8        30.01R
6HR MIN TEMP:  67; 6HR MAX TEMP:  90;

ARTESIA        CLEAR     72  61  68 S16       30.01F
CARLSBAD       PTCLDY    73  64  73 S10       29.99S
6HR MIN TEMP:  72; 6HR MAX TEMP:  91;

HOBBS          CLEAR     64  59  82 CALM      30.02F


$$


USA.gov is the U.S. government's official web portal to all federal, state and local government web resources and services.